This is the latest recevied weather packets stored in our database for station/object KB2SKP. If no packets are shown the sender has not sent any weather packets the latest 1 day(s).
| Time | Temp. | Humidity | Pressure | Rain* | Wind** | Luminosity | Snow |
|---|---|---|---|---|---|---|---|
| 1836274605 | 19.44° C | 98% | 1014.2 hPa | 0 mm | 0 m/s | 0 W/m² | - |
| 1836274459 | 18.89° C | 98% | 1014 hPa | 0 mm | 0 m/s | 0 W/m² | - |
| 1836274303 | 19.44° C | 98% | 1014 hPa | 0 mm | 0 m/s | 0 W/m² | - |
| 1836274157 | 18.89° C | 98% | 1014 hPa | 0 mm | 0 m/s | 0 W/m² | - |
| 1836274003 | 19.44° C | 98% | 1013.9 hPa | 0 mm | 0 m/s | 0 W/m² | - |
| 1778046680 | 20° C | 71% | 1008.4 hPa | 0 mm | 1.34 m/s, 115° | 0 W/m² | - |
| 1778046377 | 20° C | 71% | 1008.4 hPa | 0 mm | 0.89 m/s, 197° | 0 W/m² | - |
| 1778046073 | 20° C | 71% | 1008.5 hPa | 0 mm | 0.89 m/s, 136° | 0 W/m² | - |
| 1778045771 | 20° C | 71% | 1008.5 hPa | 0 mm | 1.34 m/s, 59° | 0 W/m² | - |
| 1778045469 | 20° C | 70% | 1008.5 hPa | 0 mm | 1.34 m/s, 121° | 0 W/m² | - |
| 1778045167 | 20° C | 69% | 1008.2 hPa | 0 mm | 0 m/s | 0 W/m² | - |
| 1778044865 | 20° C | 69% | 1008.5 hPa | 0 mm | 2.24 m/s, 105° | 0 W/m² | - |
| 1778044561 | 20° C | 69% | 1008.6 hPa | 0 mm | 1.34 m/s, 190° | 0 W/m² | - |
| 1778044258 | 20.56° C | 69% | 1008.7 hPa | 0 mm | 0.89 m/s, 35° | 0 W/m² | - |
| 1778043956 | 20.56° C | 68% | 1008.7 hPa | 0 mm | 0.45 m/s, 240° | 0 W/m² | - |
| 1778043653 | 20.56° C | 67% | 1009.1 hPa | 0 mm | 1.34 m/s, 208° | 0 W/m² | - |
| 1778043350 | 20.56° C | 67% | 1008.7 hPa | 0 mm | 1.79 m/s, 66° | 0 W/m² | - |
| 1778043046 | 20.56° C | 67% | 1008.8 hPa | 0 mm | 0.89 m/s, 120° | 0 W/m² | - |
| 1778042744 | 20.56° C | 67% | 1008.9 hPa | 0 mm | 0.89 m/s, 98° | 0 W/m² | - |
| 1778042441 | 20.56° C | 66% | 1008.6 hPa | 0 mm | 0.89 m/s, 82° | 0 W/m² | - |
| 1778042138 | 21.11° C | 66% | 1008.7 hPa | 0 mm | 0.45 m/s, 70° | 0 W/m² | - |
| 1778041836 | 21.11° C | 65% | 1008.6 hPa | 0 mm | 0.45 m/s, 227° | 0 W/m² | - |
| 1778041535 | 21.11° C | 64% | 1008.6 hPa | 0 mm | 0.89 m/s, 117° | 0 W/m² | - |
| 1778041233 | 21.11° C | 64% | 1008.7 hPa | 0 mm | 0 m/s | 0 W/m² | - |
| 1778040931 | 21.11° C | 64% | 1008.5 hPa | 0 mm | 0.89 m/s, 105° | 0 W/m² | - |
* Rain latest hour (hover to see other rain measurements)
** Current wind speed in m/s (hover to see current wind gust speed)